Kuching, Malaysia

6:24 AM +08 on November 24, 2017 (GMT +0800)
Kuching International

Weather History for WBGG - October, 2013

Change the Weather History Date:

Tuesday, October 22, 2013

  Actual Average Record
Temperature  
Mean Temperature 82 °F -  
Max Temperature 91 °F 89 °F - ()
Min Temperature 73 °F 73 °F - ()
Cooling Degree Days 17    
Growing Degree Days 32 (Base 50)    
Moisture  
Dew Point 73 °F    
Average Humidity 86    
Maximum Humidity 100    
Minimum Humidity 46    
Precipitation  
Precipitation 2.20 in 0.47 in - ()
Sea Level Pressure  
Sea Level Pressure 29.85 in    
Wind  
Wind Speed 3 mph ()    
Max Wind Speed 8 mph    
Max Gust Speed -    
Visibility 4.9 miles    
Events Rain , Thunderstorm    
T = Trace of Precipitation, MM = Missing Value Source: Averaged Metar Reports

Daily Weather History Graph

Daily Weather History Graph

Search for Another Location

Airport or City:

Trip Planner

Search our weather history database for the weather conditions in past years. The results will help you decide how hot, cold, wet, or windy it might be!

Date:

Astronomy

Oct. 22, 2013 Rise Set
Actual Time 6:20 AM +08 6:25 PM +08
Civil Twilight 5:59 AM +08 6:46 PM +08
Nautical Twilight 5:35 AM +08 7:10 PM +08
Astronomical Twilight 5:11 AM +08 7:35 PM +08
Moon 9:10 PM +08 (10/22) 8:49 AM +08 (10/22)
Length of Visible Light 12h 46m
Length of Day
12h 04m
Waning Gibbous, 90% of the Moon is Illuminated
Oct 22
Waning Gibbous
Oct 27
Last Quarter
Nov 3
New
Nov 10
First Quarter
Nov 17
Full

Hourly Weather History & Observations

Time (+08) Temp. Heat Index Dew Point Humidity Pressure Visibility Wind Dir Wind Speed Gust Speed Precip Events Conditions
12:00 AM 75.2 °F - 73.4 °F 94% 29.86 in 6.2 mi SE 3.5 mph - N/A   Mostly Cloudy
12:30 AM 75.2 °F - 73.4 °F 94% 29.86 in 6.2 mi South 3.5 mph - N/A Rain Light Rain
1:00 AM 75.2 °F - 73.4 °F 94% 29.83 in 6.2 mi SSW 2.3 mph - N/A Rain Light Rain
1:30 AM 75.2 °F - 73.4 °F 94% 29.86 in 6.2 mi SW 1.2 mph - N/A Rain Light Rain
2:00 AM 75 °F - 74 °F 95% 29.85 in 6 mi Calm Calm - - Rain Light Rain
2:00 AM 75.2 °F - 73.4 °F 94% 29.83 in 6.2 mi Calm Calm - N/A Rain Light Rain
2:30 AM 75.2 °F - 73.4 °F 94% 29.83 in 5.0 mi SE 1.2 mph - N/A Rain Light Rain
3:00 AM 75.2 °F - 73.4 °F 94% 29.83 in 6.2 mi East 2.3 mph - N/A   Mostly Cloudy
3:30 AM 75.2 °F - 73.4 °F 94% 29.83 in 6.2 mi SE 2.3 mph - N/A   Mostly Cloudy
4:00 AM 75.2 °F - 73.4 °F 94% 29.83 in 3.7 mi SE 3.5 mph - N/A   Mostly Cloudy
4:30 AM 75.2 °F - 73.4 °F 94% 29.83 in 5.0 mi South 2.3 mph - N/A   Mostly Cloudy
5:00 AM 75 °F - 74 °F 95% 29.83 in 5 mi SSE 2.3 mph - -   Mist
5:00 AM 75.2 °F - 73.4 °F 94% 29.83 in 5.0 mi SSE 2.3 mph - N/A   Mostly Cloudy
5:30 AM 75.2 °F - 73.4 °F 94% 29.83 in 5.0 mi Calm Calm - N/A   Mostly Cloudy
6:00 AM 75.2 °F - 73.4 °F 94% 29.83 in 3.7 mi ESE 3.5 mph - N/A   Mostly Cloudy
6:30 AM 75.2 °F - 73.4 °F 94% 29.83 in 2.5 mi SE 4.6 mph - N/A   Mostly Cloudy
7:00 AM 75.2 °F - 73.4 °F 94% 29.83 in 1.2 mi SSE 3.5 mph - N/A   Mostly Cloudy
7:30 AM 75.2 °F - 73.4 °F 94% 29.86 in 2.5 mi SE 4.6 mph - N/A   Mostly Cloudy
8:00 AM 76 °F - 74 °F 92% 29.87 in 6 mi SE 2.3 mph - -   Haze
8:00 AM 77.0 °F - 73.4 °F 89% 29.86 in 6.2 mi SE 2.3 mph - N/A   Mostly Cloudy
8:30 AM 78.8 °F - 73.4 °F 83% 29.89 in 6.2 mi SE 4.6 mph - N/A   Mostly Cloudy
9:00 AM 78.8 °F - 73.4 °F 83% 29.89 in 6.2 mi SSE 3.5 mph - N/A   Mostly Cloudy
9:30 AM 80.6 °F 85.4 °F 73.4 °F 79% 29.89 in 6.2 mi SSE 3.5 mph - N/A   Mostly Cloudy
10:00 AM 82.4 °F 88.2 °F 73.4 °F 74% 29.89 in 6.2 mi SSE 2.3 mph - N/A   Mostly Cloudy
10:30 AM 86.0 °F 93.4 °F 73.4 °F 66% 29.89 in 6.2 mi WSW 2.3 mph - N/A   Mostly Cloudy
11:00 AM 87 °F - 73 °F 54% 29.88 in 9 mi WSW 4.6 mph - -   Haze
11:00 AM 87.8 °F 95.6 °F 73.4 °F 62% 29.86 in 0.9 mi WSW 4.6 mph - N/A   Mostly Cloudy
11:30 AM 87.8 °F 95.6 °F 73.4 °F 62% 29.86 in 6.2 mi West 4.6 mph - N/A   Mostly Cloudy
12:00 PM 87.8 °F 95.6 °F 73.4 °F 62% 29.86 in 6.2 mi West 4.6 mph - N/A   Mostly Cloudy
12:30 PM 87.8 °F 95.6 °F 73.4 °F 62% 29.83 in 6.2 mi WNW 3.5 mph - N/A   Mostly Cloudy
1:00 PM 87.8 °F 95.6 °F 73.4 °F 62% 29.80 in 6.2 mi WNW 6.9 mph - N/A   Mostly Cloudy
1:30 PM 89.6 °F 96.2 °F 71.6 °F 55% 29.80 in 6.2 mi West 5.8 mph - N/A   Mostly Cloudy
2:00 PM 91 °F - 73 °F 46% 29.78 in 6 mi SW 4.6 mph - -   Partly Cloudy
2:00 PM 89.6 °F 98.2 °F 73.4 °F 59% 29.74 in 5.6 mi NNW 6.9 mph - N/A Thunderstorm Thunderstorm
2:30 PM 89.6 °F 98.2 °F 73.4 °F 59% 29.74 in 5.6 mi NNW 6.9 mph - N/A Thunderstorm Thunderstorm
3:00 PM 82.4 °F 89.5 °F 75.2 °F 79% 29.77 in 1.2 mi SW 8.1 mph - N/A Rain , Thunderstorm Thunderstorms and Rain
3:30 PM 75.2 °F - 73.4 °F 94% 29.80 in 0.5 mi WSW 6.9 mph - N/A Rain , Thunderstorm Heavy Thunderstorms and Rain
4:00 PM 75.2 °F - 73.4 °F 94% 29.80 in 1.6 mi SW 2.3 mph - N/A Rain , Thunderstorm Thunderstorms and Rain
4:30 PM 75.2 °F - 73.4 °F 94% 29.80 in 3.1 mi West 4.6 mph - N/A Rain , Thunderstorm Light Thunderstorms and Rain
5:00 PM 75 °F - 74 °F 94% 29.83 in 3 mi West 6.9 mph - - Rain Light Rain
5:00 PM 75.2 °F - 73.4 °F 94% 29.83 in 3.1 mi West 6.9 mph - N/A Rain Light Rain
5:30 PM 75.2 °F - 73.4 °F 94% 29.83 in 3.1 mi WSW 8.1 mph - N/A Rain Light Rain
6:00 PM 75.2 °F - 73.4 °F 94% 29.83 in 3.1 mi WSW 5.8 mph - N/A Rain Rain
6:30 PM 75.2 °F - 73.4 °F 94% 29.86 in 3.1 mi WNW 2.3 mph - N/A Rain Light Rain
7:00 PM 75.2 °F - 73.4 °F 94% 29.86 in 2.5 mi SSW 3.5 mph - N/A Rain Light Rain
7:30 PM 75.2 °F - 73.4 °F 94% 29.86 in 3.7 mi WSW 4.6 mph - N/A Rain Light Rain
8:00 PM 75 °F - 73 °F 91% 29.88 in 4 mi SW 3.5 mph - - Rain Light Rain
8:00 PM 75.2 °F - 73.4 °F 94% 29.86 in 3.7 mi SW 3.5 mph - N/A Rain Light Rain
8:30 PM 75.2 °F - 73.4 °F 94% 29.89 in 4.3 mi NW 2.3 mph - N/A Rain Light Rain
9:00 PM 75.2 °F - 73.4 °F 94% 29.89 in 5.0 mi Calm Calm - N/A Rain Light Rain
9:30 PM 75.2 °F - 73.4 °F 94% 29.89 in 5.0 mi NE 1.2 mph - N/A Rain Light Rain
10:00 PM 73.4 °F - 73.4 °F 100% 29.89 in 6.2 mi SE 3.5 mph - N/A   Mostly Cloudy
10:30 PM 73.4 °F - 73.4 °F 100% 29.89 in 6.2 mi SE 4.6 mph - N/A   Mostly Cloudy
11:00 PM 74 °F - 73 °F 95% 29.89 in 9 mi SE 3.5 mph - -   Partly Cloudy
11:00 PM 73.4 °F - 73.4 °F 100% 29.89 in 6.2 mi SE 3.5 mph - N/A   Mostly Cloudy
11:30 PM 73.4 °F - 73.4 °F 100% 29.89 in 6.2 mi East 2.3 mph - N/A   Mostly Cloudy